sat.trackr.live / text

‹ back to catalog

STARLINK-35762

NORAD 67172 · 2025-303K

PAYLOAD ACTIVE UNKNOWN

§ Identity

Operator
Country
US
Launch date
2025-12-17
Launch site
AFETR
Launch vehicle
Mass (kg)
RCS (m²)

Purposes: comms

External: N2YO · Heavens-Above · Gunter

§ Orbital elements

Epoch: 2026-05-24T14:47:58.115904Z

Period
94.27 min
Inclination
42.9988°
Eccentricity
0.0001304
Mean motion
15.27566741 rev/d
Perigee alt
482.2 km
Apogee alt
484.0 km
Semi-major
6,861.2 km
B*
9.1413e-4
RAAN
242.2305°
Arg perigee
258.4957°
Mean anomaly
101.5748°
Rev number
2,434

§ Raw data

STARLINK-357621 67172U 25303K   26144.61664486  .00024968  00000+0  91413-3 0  99932 67172  42.9988 242.2305 0001304 258.4957 101.5748 15.27566741 24344

JSON: /api/v1/satellites/67172 · /tle

For live sub-satellite position, see the globe view (requires WebGL).

§ Visibility from observer

Set your observer location to see the next 7 days of passes ≥ 10°. The values pass through the URL so the page stays shareable.

No JS? Fill the form by hand. The geolocation button needs JavaScript.